This is the latest recevied weather packets stored in our database for station/object K4KMJ. If no packets are shown the sender has not sent any weather packets the latest 10 day(s).
| Time | Temp. | Humidity | Pressure | Rain* | Wind** | Luminosity | Snow |
|---|---|---|---|---|---|---|---|
| 1777985869 | 23.33° C | 86% | 1018.2 hPa | 0 mm | - | 327 W/m² | - |
| 1777985566 | 23.89° C | 88% | 1018.1 hPa | 0 mm | - | 299 W/m² | - |
| 1777985263 | 23.33° C | 89% | 1018.1 hPa | 0 mm | - | 276 W/m² | - |
| 1777984960 | 23.33° C | 91% | 1018.2 hPa | 0 mm | - | 258 W/m² | - |
| 1777984655 | 23.33° C | 92% | 1018.3 hPa | 0 mm | - | 244 W/m² | - |
| 1777984352 | 22.78° C | 94% | 1018.4 hPa | 0 mm | - | 229 W/m² | - |
| 1777984048 | 22.78° C | 95% | 1018.3 hPa | 0 mm | - | 214 W/m² | - |
| 1777983746 | 22.22° C | 96% | 1018.3 hPa | 0 mm | - | 202 W/m² | - |
| 1777983442 | 21.67° C | 97% | 1018.2 hPa | 0 mm | - | 189 W/m² | - |
| 1777983139 | 22.22° C | 97% | 1018 hPa | 0 mm | - | 176 W/m² | - |
| 1777982835 | 21.67° C | 98% | 1018.1 hPa | 0 mm | - | 145 W/m² | - |
| 1777982531 | 21.11° C | 98% | 1018.1 hPa | 0 mm | - | 132 W/m² | - |
| 1777982224 | 20.56° C | 98% | 1018.2 hPa | 0 mm | - | 118 W/m² | - |
| 1777981923 | 20° C | 98% | 1018.1 hPa | 0 mm | - | 102 W/m² | - |
| 1777981614 | 19.44° C | 98% | 1018.1 hPa | 0 mm | - | 90 W/m² | - |
| 1777981310 | 19.44° C | 98% | 1018.1 hPa | 0 mm | - | 79 W/m² | - |
| 1777981007 | 19.44° C | 99% | 1018 hPa | 0 mm | - | 69 W/m² | - |
| 1777980703 | 18.89° C | 99% | 1017.8 hPa | 0 mm | - | 60 W/m² | - |
| 1777980399 | 17.22° C | 99% | 1017.8 hPa | 0 mm | - | 53 W/m² | - |
| 1777980098 | 16.67° C | 99% | 1017.5 hPa | 0 mm | - | 47 W/m² | - |
| 1777979791 | 16.11° C | 99% | 1017.4 hPa | 0 mm | - | 40 W/m² | - |
| 1777979488 | 16.11° C | 99% | 1017.3 hPa | 0 mm | - | 33 W/m² | - |
| 1777979184 | 15.56° C | 99% | 1017.2 hPa | 0 mm | - | 26 W/m² | - |
| 1777978882 | 15.56° C | 99% | 1017.2 hPa | 0 mm | - | 20 W/m² | - |
| 1777978578 | 15° C | 99% | 1017.4 hPa | 0 mm | - | 14 W/m² | - |
* Rain latest hour (hover to see other rain measurements)
** Current wind speed in m/s (hover to see current wind gust speed)